カタログに戻る

ONEWEB-0287

運用中通信PO
NORAD 49077·PAYLOAD·🇬🇧 United Kingdom

打ち上げ Aug 21, 2021 から Baikonur Cosmodrome

Loading…

次のパス (今後24時間)

TLE

最新Source: CelesTrak SupGP

元期: Sep 14, 2026, 13:36 UTC

1 49077C 21075C   26257.56718009  .00001994  00000+0  51428-2 0  2571
2 49077  87.9209 348.1154 0001954 113.7790 358.4344 13.17648207    18

AllMySatでONEWEB-0287をリアルタイム追跡

Download on the App Store